| time (UTC) | temp C | wind direction | speed KPH | gust KPH | rain 1hr cm | rain 24hr cm | rain mn cm | humidity % | barometer mb |
| 20260506092504 | 12 | 335 | 33.8 | 48.3 | 0.00 | 0.00 | 0.00 | 90 | 1011.8 |
| 20260506092007 | 12 | 129 | 33.8 | 48.3 | 0.00 | 0.00 | 0.00 | 90 | 1011.8 |
| 20260506091522 | 12 | 335 | 33.8 | 48.3 | 0.00 | 0.00 | 0.00 | 90 | 1011.9 |
| 20260506091008 | 12 | 123 | 35.4 | 48.3 | 0.00 | 0.00 | 0.00 | 90 | 1011.9 |
| 20260506090502 | 12 | 335 | 33.8 | 48.3 | 0.00 | 0.00 | 0.00 | 90 | 1012.0 |
| 20260506090005 | 12 | 335 | 37.0 | 48.3 | 0.00 | 0.00 | 0.00 | 90 | 1012.0 |
| 20260506085502 | 12 | 335 | 35.4 | 48.3 | 0.00 | 0.00 | 0.00 | 90 | 1012.0 |
| 20260506085003 | 12 | 335 | 37.0 | 49.9 | 0.00 | 0.00 | 0.00 | 90 | 1011.9 |
| 20260506084503 | 12 | 335 | 35.4 | 51.5 | 0.00 | 0.00 | 0.00 | 89 | 1012.0 |
| 20260506084005 | 12 | 124 | 38.6 | 51.5 | 0.00 | 0.00 | 0.00 | 89 | 1012.0 |
| 20260506083503 | 12 | 335 | 37.0 | 49.9 | 0.00 | 0.00 | 0.00 | 89 | 1012.1 |
| 20260506083004 | 12 | 134 | 37.0 | 49.9 | 0.00 | 0.00 | 0.00 | 89 | 1012.1 |
| 20260506082502 | 12 | 335 | 38.6 | 49.9 | 0.00 | 0.00 | 0.00 | 89 | 1012.0 |
| 20260506082005 | 12 | 335 | 38.6 | 51.5 | 0.00 | 0.00 | 0.00 | 89 | 1012.1 |
| 20260506081504 | 12 | 147 | 38.6 | 53.1 | 0.00 | 0.00 | 0.00 | 89 | 1012.1 |
| 20260506081002 | 12 | 335 | 38.6 | 53.1 | 0.00 | 0.00 | 0.00 | 89 | 1012.1 |
| 20260506080504 | 12 | 140 | 38.6 | 59.5 | 0.00 | 0.00 | 0.00 | 89 | 1012.1 |
| 20260506073502 | 12 | 335 | 37.0 | 53.1 | 0.00 | 0.00 | 0.00 | 88 | 1012.3 |
| 20260506073003 | 12 | 335 | 38.6 | 53.1 | 0.00 | 0.00 | 0.00 | 88 | 1012.3 |
| 20260506072504 | 12 | 335 | 38.6 | 49.9 | 0.00 | 0.00 | 0.00 | 88 | 1012.4 |
| 20260506072002 | 12 | 335 | 38.6 | 53.1 | 0.00 | 0.00 | 0.00 | 88 | 1012.4 |
| 20260506071505 | 12 | 335 | 38.6 | 53.1 | 0.00 | 0.00 | 0.00 | 88 | 1012.4 |
| 20260506071003 | 12 | 335 | 38.6 | 53.1 | 0.00 | 0.00 | 0.00 | 88 | 1012.4 |
| 20260506070503 | 12 | 335 | 37.0 | 54.7 | 0.00 | 0.00 | 0.00 | 88 | 1012.5 |
| 20260506062503 | 12 | 150 | 38.6 | 54.7 | 0.00 | 0.00 | 0.00 | 87 | 1012.4 |
| 20260506062002 | 12 | 156 | 38.6 | 54.7 | 0.00 | 0.00 | 0.00 | 87 | 1012.4 |
| 20260506061509 | 12 | 335 | 41.8 | 59.5 | 0.00 | 0.00 | 0.00 | 87 | 1012.4 |
| 20260506061007 | 12 | 335 | 40.2 | 59.5 | 0.00 | 0.00 | 0.00 | 87 | 1012.4 |
| 20260506060504 | 12 | 335 | 41.8 | 61.2 | 0.00 | 0.00 | 0.00 | 86 | 1012.3 |
| 20260506051003 | 13 | 159 | 48.3 | 67.6 | 0.00 | 0.00 | 0.00 | 86 | 1012.7 |
| 20260506050503 | 13 | 335 | 48.3 | 67.6 | 0.00 | 0.00 | 0.00 | 86 | 1012.7 |
| 20260506045005 | 13 | 335 | 46.7 | 61.2 | 0.00 | 0.00 | 0.00 | 86 | 1012.7 |
| 20260506044510 | 13 | 335 | 43.5 | 67.6 | 0.00 | 0.00 | 0.00 | 86 | 1012.7 |
| 20260506044004 | 13 | 335 | 46.7 | 67.6 | 0.00 | 0.00 | 0.00 | 86 | 1012.8 |
| 20260506043503 | 13 | 335 | 46.7 | 61.2 | 0.00 | 0.00 | 0.00 | 86 | 1012.8 |
| 20260506043014 | 13 | 335 | 43.5 | 62.8 | 0.00 | 0.00 | 0.00 | 86 | 1012.8 |
| 20260506042503 | 13 | 141 | 43.5 | 62.8 | 0.00 | 0.00 | 0.00 | 86 | 1012.8 |
| 20260506042003 | 13 | 335 | 43.5 | 61.2 | 0.00 | 0.00 | 0.00 | 86 | 1012.8 |
| 20260506041510 | 13 | 335 | 40.2 | 57.9 | 0.00 | 0.00 | 0.00 | 85 | 1012.9 |
| 20260506041003 | 13 | 335 | 41.8 | 62.8 | 0.00 | 0.00 | 0.00 | 85 | 1012.9 |
| 20260506040504 | 13 | 134 | 45.1 | 64.4 | 0.00 | 0.00 | 0.00 | 85 | 1012.9 |
| 20260506040019 | 13 | 335 | 45.1 | 64.4 | 0.00 | 0.00 | 0.00 | 85 | 1012.8 |
| 20260506035507 | 13 | 148 | 43.5 | 61.2 | 0.00 | 0.00 | 0.00 | 85 | 1012.8 |
| 20260506035004 | 13 | 146 | 43.5 | 64.4 | 0.00 | 0.00 | 0.00 | 85 | 1012.8 |
| 20260506034519 | 13 | 141 | 41.8 | 69.2 | 0.00 | 0.00 | 0.00 | 85 | 1012.7 |
| 20260506034003 | 13 | 146 | 49.9 | 69.2 | 0.00 | 0.00 | 0.00 | 85 | 1012.7 |
| 20260506033504 | 13 | 335 | 49.9 | 69.2 | 0.00 | 0.00 | 0.00 | 84 | 1012.6 |
| 20260506033014 | 13 | 155 | 49.9 | 69.2 | 0.00 | 0.00 | 0.00 | 84 | 1012.5 |
| 20260506032502 | 13 | 335 | 46.7 | 74.0 | 0.00 | 0.00 | 0.00 | 84 | 1012.4 |
| 20260506032007 | 13 | 335 | 53.1 | 74.0 | 0.00 | 0.00 | 0.00 | 84 | 1012.5 |
| 20260506031514 | 13 | 150 | 51.5 | 67.6 | 0.00 | 0.00 | 0.00 | 84 | 1012.4 |
| 20260506031004 | 13 | 145 | 53.1 | 67.6 | 0.00 | 0.00 | 0.00 | 84 | 1012.3 |
| 20260506030507 | 13 | 335 | 48.3 | 66.0 | 0.00 | 0.00 | 0.00 | 85 | 1012.5 |
| 20260506030026 | 13 | 132 | 48.3 | 59.5 | 0.00 | 0.00 | 0.00 | 85 | 1012.5 |
| 20260506025504 | 13 | 335 | 43.5 | 59.5 | 0.00 | 0.00 | 0.00 | 85 | 1012.5 |
| 20260506025004 | 13 | 130 | 40.2 | 61.2 | 0.00 | 0.00 | 0.00 | 85 | 1012.6 |
| 20260506024523 | 13 | 143 | 45.1 | 61.2 | 0.00 | 0.00 | 0.00 | 85 | 1012.7 |
| 20260506024004 | 13 | 335 | 43.5 | 64.4 | 0.00 | 0.00 | 0.00 | 84 | 1012.7 |
| 20260506023504 | 13 | 335 | 48.3 | 64.4 | 0.00 | 0.00 | 0.00 | 84 | 1012.6 |
| 20260506023016 | 13 | 143 | 48.3 | 67.6 | 0.00 | 0.00 | 0.00 | 84 | 1012.6 |
| 20260506022509 | 13 | 141 | 48.3 | 67.6 | 0.00 | 0.00 | 0.00 | 84 | 1012.6 |
| 20260506022006 | 13 | 335 | 45.1 | 69.2 | 0.00 | 0.00 | 0.00 | 84 | 1012.7 |
| 20260506021512 | 13 | 335 | 48.3 | 69.2 | 0.00 | 0.00 | 0.00 | 84 | 1012.7 |
| 20260506021006 | 13 | 335 | 43.5 | 59.5 | 0.00 | 0.00 | 0.00 | 84 | 1012.7 |
| 20260506020503 | 13 | 335 | 41.8 | 62.8 | 0.00 | 0.00 | 0.00 | 84 | 1012.7 |
| 20260506020016 | 13 | 143 | 46.7 | 66.0 | 0.00 | 0.00 | 0.00 | 84 | 1012.5 |
| 20260506015504 | 13 | 155 | 45.1 | 66.0 | 0.00 | 0.00 | 0.00 | 84 | 1012.6 |
| 20260506015005 | 13 | 335 | 43.5 | 61.2 | 0.00 | 0.00 | 0.00 | 84 | 1012.5 |
| 20260506014520 | 13 | 148 | 40.2 | 61.2 | 0.00 | 0.00 | 0.00 | 83 | 1012.4 |
| 20260506014004 | 13 | 335 | 37.0 | 61.2 | 0.00 | 0.00 | 0.00 | 83 | 1012.3 |
| 20260506013505 | 13 | 335 | 41.8 | 61.2 | 0.00 | 0.00 | 0.00 | 83 | 1012.5 |
| 20260506013023 | 13 | 335 | 43.5 | 61.2 | 0.00 | 0.00 | 0.00 | 83 | 1012.4 |
| 20260506012504 | 13 | 150 | 37.0 | 56.3 | 0.00 | 0.00 | 0.00 | 83 | 1012.3 |
| 20260506012009 | 13 | 335 | 41.8 | 61.2 | 0.00 | 0.00 | 0.00 | 82 | 1012.3 |
| 20260506011520 | 13 | 140 | 46.7 | 64.4 | 0.00 | 0.00 | 0.00 | 82 | 1012.3 |
| 20260506011008 | 13 | 335 | 46.7 | 67.6 | 0.00 | 0.00 | 0.00 | 82 | 1012.2 |
| 20260506010506 | 13 | 335 | 43.5 | 69.2 | 0.00 | 0.00 | 0.00 | 82 | 1012.2 |
| 20260506010024 | 13 | 335 | 48.3 | 74.0 | 0.00 | 0.00 | 0.00 | 81 | 1012.2 |
| 20260506005503 | 13 | 335 | 43.5 | 74.0 | 0.00 | 0.00 | 0.00 | 81 | 1012.2 |
| 20260506005005 | 13 | 335 | 48.3 | 66.0 | 0.00 | 0.00 | 0.00 | 81 | 1012.2 |
| 20260506004516 | 13 | 335 | 43.5 | 67.6 | 0.00 | 0.00 | 0.00 | 80 | 1012.1 |
| 20260506004005 | 14 | 130 | 49.9 | 67.6 | 0.00 | 0.00 | 0.00 | 80 | 1012.1 |
| 20260506003504 | 14 | 335 | 51.5 | 78.9 | 0.00 | 0.00 | 0.00 | 80 | 1012.0 |
| 20260506003020 | 14 | 335 | 56.3 | 78.9 | 0.00 | 0.00 | 0.00 | 80 | 1011.9 |
| 20260506002505 | 14 | 153 | 56.3 | 75.6 | 0.00 | 0.00 | 0.00 | 80 | 1011.9 |
| 20260506002008 | 14 | 151 | 53.1 | 69.2 | 0.00 | 0.00 | 0.00 | 80 | 1011.9 |
| 20260506001522 | 14 | 335 | 48.3 | 62.8 | 0.00 | 0.00 | 0.00 | 80 | 1011.8 |
| 20260506001005 | 14 | 145 | 45.1 | 61.2 | 0.00 | 0.00 | 0.00 | 80 | 1011.7 |
| 20260506000505 | 14 | 335 | 45.1 | 62.8 | 0.00 | 0.00 | 0.00 | 80 | 1011.6 |
| 20260506000022 | 14 | 130 | 43.5 | 62.8 | 0.00 | 0.00 | 0.00 | 80 | 1011.6 |
| 20260505235507 | 14 | 130 | 45.1 | 62.8 | 0.00 | 0.00 | 0.00 | 80 | 1011.6 |
| 20260505235006 | 14 | 125 | 43.5 | 66.0 | 0.00 | 0.00 | 0.00 | 81 | 1011.5 |
| 20260505234523 | 13 | 138 | 43.5 | 66.0 | 0.00 | 0.00 | 0.00 | 81 | 1011.4 |
| 20260505234011 | 13 | 138 | 43.5 | 62.8 | 0.00 | 0.00 | 0.00 | 81 | 1011.3 |
| 20260505233507 | 13 | 335 | 43.5 | 62.8 | 0.00 | 0.00 | 0.00 | 81 | 1011.2 |
| 20260505233022 | 13 | 155 | 46.7 | 62.8 | 0.00 | 0.00 | 0.00 | 81 | 1011.1 |
| 20260505232505 | 13 | 335 | 40.2 | 57.9 | 0.00 | 0.00 | 0.00 | 81 | 1011.1 |
| 20260505232006 | 14 | 148 | 40.2 | 66.0 | 0.00 | 0.00 | 0.00 | 81 | 1011.1 |
| 20260505231522 | 14 | 335 | 41.8 | 66.0 | 0.00 | 0.00 | 0.00 | 80 | 1011.0 |
| 20260505231013 | 14 | 153 | 40.2 | 62.8 | 0.00 | 0.00 | 0.00 | 80 | 1011.0 |
| 20260505230506 | 14 | 335 | 41.8 | 62.8 | 0.00 | 0.00 | 0.00 | 80 | 1010.9 |
| 20260505230036 | 14 | 335 | 43.5 | 62.8 | 0.00 | 0.00 | 0.00 | 80 | 1010.9 |
| 20260505225506 | 14 | 134 | 45.1 | 62.8 | 0.00 | 0.00 | 0.00 | 80 | 1010.8 |
| 20260505225006 | 14 | 135 | 46.7 | 62.8 | 0.00 | 0.00 | 0.00 | 80 | 1010.8 |
| 20260505224515 | 14 | 335 | 46.7 | 64.4 | 0.00 | 0.00 | 0.00 | 80 | 1010.6 |
| 20260505224011 | 14 | 150 | 45.1 | 64.4 | 0.00 | 0.00 | 0.00 | 80 | 1010.7 |
| 20260505223506 | 14 | 335 | 43.5 | 64.4 | 0.00 | 0.00 | 0.00 | 80 | 1010.6 |
| 20260505223028 | 15 | 335 | 48.3 | 78.9 | 0.00 | 0.00 | 0.00 | 79 | 1010.7 |
| 20260505222509 | 15 | 125 | 51.5 | 78.9 | 0.00 | 0.00 | 0.00 | 79 | 1010.7 |
| 20260505222009 | 15 | 124 | 48.3 | 72.4 | 0.00 | 0.00 | 0.00 | 79 | 1010.5 |
| 20260505221523 | 15 | 159 | 46.7 | 62.8 | 0.00 | 0.00 | 0.00 | 79 | 1010.5 |
| 20260505221010 | 15 | 335 | 45.1 | 62.8 | 0.00 | 0.00 | 0.00 | 79 | 1010.5 |
| 20260505220506 | 15 | 335 | 41.8 | 66.0 | 0.00 | 0.00 | 0.00 | 79 | 1010.5 |
| 20260505220018 | 14 | 335 | 43.5 | 66.0 | 0.00 | 0.00 | 0.00 | 79 | 1010.6 |
| 20260505215511 | 14 | 335 | 40.2 | 64.4 | 0.00 | 0.00 | 0.00 | 79 | 1010.6 |
| 20260505215007 | 14 | 130 | 41.8 | 64.4 | 0.00 | 0.00 | 0.00 | 80 | 1010.6 |
| 20260505214525 | 14 | 335 | 40.2 | 59.5 | 0.00 | 0.00 | 0.00 | 80 | 1010.5 |
| 20260505214006 | 14 | 335 | 41.8 | 67.6 | 0.00 | 0.00 | 0.00 | 79 | 1010.4 |
| 20260505213507 | 15 | 335 | 41.8 | 67.6 | 0.00 | 0.00 | 0.00 | 79 | 1010.3 |
| 20260505213028 | 14 | 168 | 40.2 | 56.3 | 0.00 | 0.00 | 0.00 | 79 | 1010.2 |
| 20260505212512 | 14 | 143 | 43.5 | 54.7 | 0.00 | 0.00 | 0.00 | 79 | 1010.1 |
| 20260505212007 | 15 | 335 | 40.2 | 62.8 | 0.00 | 0.00 | 0.00 | 79 | 1010.1 |
| 20260505211522 | 14 | 130 | 43.5 | 62.8 | 0.00 | 0.00 | 0.00 | 79 | 1010.0 |
| 20260505211008 | 14 | 335 | 41.8 | 61.2 | 0.00 | 0.00 | 0.00 | 79 | 1010.1 |
| 20260505210508 | 14 | 335 | 41.8 | 59.5 | 0.00 | 0.00 | 0.00 | 79 | 1010.1 |
| 20260505210023 | 14 | 335 | 40.2 | 59.5 | 0.00 | 0.00 | 0.00 | 79 | 1010.1 |
| 20260505205509 | 15 | 335 | 43.5 | 54.7 | 0.00 | 0.00 | 0.00 | 79 | 1010.1 |
| 20260505205011 | 14 | 335 | 43.5 | 56.3 | 0.00 | 0.00 | 0.00 | 79 | 1010.0 |
| 20260505204528 | 14 | 136 | 43.5 | 56.3 | 0.00 | 0.00 | 0.00 | 80 | 1009.9 |
| 20260505204009 | 14 | 128 | 40.2 | 56.3 | 0.00 | 0.00 | 0.00 | 80 | 1010.0 |
| 20260505203506 | 14 | 124 | 41.8 | 56.3 | 0.00 | 0.00 | 0.00 | 80 | 1010.0 |
| 20260505203039 | 14 | 130 | 43.5 | 54.7 | 0.00 | 0.00 | 0.00 | 80 | 1010.0 |
| 20260505202508 | 14 | 128 | 38.6 | 53.1 | 0.00 | 0.00 | 0.00 | 80 | 1010.0 |
| 20260505202009 | 14 | 335 | 41.8 | 54.7 | 0.00 | 0.00 | 0.00 | 81 | 1010.0 |
| 20260505201527 | 14 | 335 | 41.8 | 54.7 | 0.00 | 0.00 | 0.00 | 81 | 1010.0 |
| 20260505201007 | 14 | 335 | 40.2 | 51.5 | 0.00 | 0.00 | 0.00 | 81 | 1010.1 |
| 20260505200504 | 14 | 335 | 35.4 | 48.3 | 0.00 | 0.00 | 0.00 | 81 | 1010.2 |
| 20260505200031 | 14 | 335 | 37.0 | 46.7 | 0.00 | 0.00 | 0.00 | 81 | 1010.3 |
| 20260505195502 | 14 | 335 | 32.2 | 46.7 | 0.00 | 0.00 | 0.00 | 81 | 1010.4 |
| 20260505195003 | 14 | 335 | 33.8 | 45.1 | 0.00 | 0.00 | 0.00 | 81 | 1010.5 |
| 20260505194506 | 14 | 335 | 33.8 | 49.9 | 0.00 | 0.00 | 0.00 | 81 | 1010.5 |
| 20260505194005 | 14 | 123 | 37.0 | 49.9 | 0.00 | 0.00 | 0.00 | 81 | 1010.4 |
| 20260505193504 | 14 | 121 | 35.4 | 46.7 | 0.00 | 0.00 | 0.00 | 81 | 1010.6 |
| 20260505193011 | 14 | 123 | 35.4 | 46.7 | 0.00 | 0.00 | 0.00 | 81 | 1010.7 |
| 20260505192510 | 14 | 119 | 32.2 | 41.8 | 0.00 | 0.00 | 0.00 | 81 | 1010.7 |
| 20260505192008 | 14 | 335 | 30.6 | 45.1 | 0.00 | 0.00 | 0.00 | 81 | 1010.8 |
| 20260505191504 | 14 | 127 | 32.2 | 45.1 | 0.00 | 0.00 | 0.00 | 81 | 1010.9 |
| 20260505191003 | 14 | 335 | 30.6 | 40.2 | 0.00 | 0.00 | 0.00 | 81 | 1010.9 |
| 20260505190507 | 14 | 116 | 30.6 | 46.7 | 0.00 | 0.00 | 0.00 | 81 | 1011.2 |
| 20260505190008 | 14 | 335 | 33.8 | 46.7 | 0.00 | 0.00 | 0.00 | 81 | 1011.2 |
| 20260505185503 | 14 | 133 | 32.2 | 45.1 | 0.00 | 0.00 | 0.00 | 82 | 1011.2 |
| 20260505185007 | 14 | 119 | 33.8 | 41.8 | 0.00 | 0.00 | 0.00 | 81 | 1011.4 |
| 20260505184523 | 14 | 111 | 30.6 | 46.7 | 0.00 | 0.00 | 0.00 | 82 | 1011.5 |
| 20260505184009 | 14 | 118 | 30.6 | 46.7 | 0.00 | 0.00 | 0.00 | 82 | 1011.6 |
| 20260505183506 | 14 | 133 | 32.2 | 43.5 | 0.00 | 0.00 | 0.00 | 82 | 1011.6 |
| 20260505183005 | 14 | 130 | 30.6 | 38.6 | 0.00 | 0.00 | 0.00 | 82 | 1011.6 |
| 20260505182503 | 14 | 335 | 32.2 | 40.2 | 0.00 | 0.00 | 0.00 | 82 | 1011.6 |
| 20260505182003 | 14 | 114 | 27.4 | 40.2 | 0.00 | 0.00 | 0.00 | 82 | 1011.8 |
| 20260505181512 | 14 | 121 | 29.0 | 37.0 | 0.00 | 0.00 | 0.00 | 82 | 1011.8 |
| 20260505181004 | 14 | 137 | 27.4 | 37.0 | 0.00 | 0.00 | 0.00 | 82 | 1011.8 |
| 20260505180514 | 14 | 134 | 25.7 | 35.4 | 0.00 | 0.00 | 0.00 | 82 | 1011.9 |
| 20260505180020 | 14 | 128 | 27.4 | 33.8 | 0.00 | 0.00 | 0.00 | 82 | 1011.9 |
| 20260505175508 | 14 | 108 | 24.1 | 35.4 | 0.00 | 0.00 | 0.00 | 82 | 1012.0 |
| 20260505175007 | 14 | 118 | 24.1 | 35.4 | 0.00 | 0.00 | 0.00 | 82 | 1012.1 |
| 20260505174508 | 13 | 124 | 24.1 | 35.4 | 0.00 | 0.00 | 0.00 | 82 | 1012.2 |
| 20260505174004 | 13 | 141 | 24.1 | 33.8 | 0.00 | 0.00 | 0.00 | 82 | 1012.2 |
| 20260505173507 | 13 | 138 | 24.1 | 33.8 | 0.00 | 0.00 | 0.00 | 82 | 1012.2 |
| 20260505173034 | 13 | 132 | 25.7 | 33.8 | 0.00 | 0.00 | 0.00 | 82 | 1012.1 |
| 20260505172505 | 13 | 136 | 24.1 | 33.8 | 0.00 | 0.00 | 0.00 | 83 | 1012.2 |
| 20260505172008 | 13 | 127 | 24.1 | 33.8 | 0.00 | 0.00 | 0.00 | 83 | 1012.3 |
| 20260505171523 | 13 | 335 | 24.1 | 32.2 | 0.00 | 0.00 | 0.00 | 83 | 1012.2 |
| 20260505171010 | 13 | 335 | 24.1 | 33.8 | 0.00 | 0.00 | 0.00 | 83 | 1012.3 |
| 20260505170503 | 13 | 335 | 22.5 | 33.8 | 0.00 | 0.00 | 0.00 | 83 | 1012.3 |
| 20260505170013 | 13 | 335 | 24.1 | 33.8 | 0.00 | 0.00 | 0.00 | 82 | 1012.3 |
| 20260505165503 | 13 | 130 | 24.1 | 33.8 | 0.00 | 0.00 | 0.00 | 82 | 1012.3 |
| 20260505165006 | 13 | 335 | 22.5 | 32.2 | 0.00 | 0.00 | 0.00 | 82 | 1012.4 |
| 20260505164540 | 14 | 125 | 20.9 | 30.6 | 0.00 | 0.00 | 0.00 | 82 | 1012.5 |
| 20260505164007 | 14 | 123 | 20.9 | 27.4 | 0.00 | 0.00 | 0.00 | 81 | 1012.5 |
| 20260505163508 | 14 | 117 | 17.7 | 24.1 | 0.00 | 0.00 | 0.00 | 82 | 1012.6 |
| 20260505163025 | 14 | 120 | 17.7 | 24.1 | 0.00 | 0.00 | 0.00 | 81 | 1012.7 |
| 20260505162510 | 14 | 335 | 17.7 | 24.1 | 0.00 | 0.00 | 0.00 | 81 | 1012.7 |
| 20260505162004 | 14 | 136 | 17.7 | 24.1 | 0.00 | 0.00 | 0.00 | 81 | 1012.9 |
| 20260505161509 | 14 | 335 | 16.1 | 24.1 | 0.00 | 0.00 | 0.00 | 81 | 1012.9 |
| 20260505161007 | 14 | 335 | 14.5 | 19.3 | 0.00 | 0.00 | 0.00 | 81 | 1013.0 |
| 20260505160507 | 14 | 335 | 8.0 | 16.1 | 0.00 | 0.00 | 0.00 | 82 | 1013.0 |
| 20260505153014 | 14 | 141 | 6.4 | 14.5 | 0.00 | 0.00 | 0.00 | 83 | 1013.2 |
| 20260505152505 | 13 | 335 | 8.0 | 14.5 | 0.00 | 0.00 | 0.00 | 84 | 1013.2 |
| 20260505152009 | 13 | 139 | 8.0 | 16.1 | 0.00 | 0.00 | 0.00 | 84 | 1013.1 |
| 20260505151524 | 13 | 335 | 9.7 | 16.1 | 0.00 | 0.00 | 0.00 | 84 | 1013.2 |
| 20260505151009 | 13 | 136 | 11.3 | 19.3 | 0.00 | 0.00 | 0.00 | 84 | 1013.3 |
| 20260505150509 | 13 | 335 | 11.3 | 19.3 | 0.00 | 0.00 | 0.00 | 84 | 1013.4 |
| 20260505140507 | 12 | 134 | 17.7 | 25.7 | 0.00 | 0.00 | 0.00 | 87 | 1013.1 |
| 20260505125007 | 12 | 335 | 14.5 | 22.5 | 0.00 | 0.00 | 0.00 | 90 | 1013.2 |
| 20260505124526 | 12 | 130 | 14.5 | 22.5 | 0.00 | 0.00 | 0.00 | 91 | 1013.2 |
| 20260505124010 | 11 | 121 | 16.1 | 22.5 | 0.00 | 0.00 | 0.00 | 91 | 1013.2 |
| 20260505123507 | 11 | 335 | 14.5 | 19.3 | 0.00 | 0.00 | 0.00 | 91 | 1013.2 |
| 20260505123028 | 11 | 335 | 14.5 | 19.3 | 0.00 | 0.00 | 0.00 | 91 | 1013.2 |
| 20260505122507 | 11 | 118 | 14.5 | 19.3 | 0.00 | 0.00 | 0.00 | 91 | 1013.1 |
| 20260505122013 | 11 | 121 | 11.3 | 17.7 | 0.00 | 0.00 | 0.00 | 91 | 1013.1 |
| 20260505121530 | 11 | 114 | 12.9 | 16.1 | 0.00 | 0.00 | 0.00 | 91 | 1013.1 |
| 20260505121008 | 11 | 335 | 11.3 | 17.7 | 0.00 | 0.00 | 0.00 | 91 | 1013.1 |
| 20260505120506 | 11 | 128 | 12.9 | 17.7 | 0.00 | 0.00 | 0.00 | 91 | 1013.2 |
| 20260505120021 | 11 | 125 | 12.9 | 19.3 | 0.00 | 0.00 | 0.00 | 91 | 1013.3 |
| 20260505115507 | 11 | 115 | 11.3 | 19.3 | 0.00 | 0.00 | 0.00 | 91 | 1013.2 |
| 20260505115007 | 11 | 335 | 11.3 | 17.7 | 0.00 | 0.00 | 0.00 | 91 | 1013.3 |
| 20260505114534 | 11 | 335 | 9.7 | 17.7 | 0.00 | 0.00 | 0.00 | 91 | 1013.2 |
| 20260505114009 | 11 | 145 | 6.4 | 12.9 | 0.00 | 0.00 | 0.00 | 91 | 1013.2 |
| 20260505113507 | 11 | 335 | 4.8 | 14.5 | 0.00 | 0.00 | 0.00 | 91 | 1013.2 |
| 20260505113028 | 11 | 145 | 8.0 | 14.5 | 0.00 | 0.00 | 0.00 | 91 | 1013.3 |
| 20260505112506 | 11 | 152 | 8.0 | 14.5 | 0.00 | 0.00 | 0.00 | 91 | 1013.2 |
| 20260505112008 | 11 | 157 | 8.0 | 14.5 | 0.00 | 0.00 | 0.00 | 91 | 1013.3 |
| 20260505111528 | 11 | 164 | 8.0 | 14.5 | 0.00 | 0.00 | 0.00 | 91 | 1013.4 |
| 20260505111003 | 11 | 170 | 8.0 | 14.5 | 0.00 | 0.00 | 0.00 | 91 | 1013.3 |
| 20260505110503 | 11 | 165 | 9.7 | 14.5 | 0.00 | 0.00 | 0.00 | 91 | 1013.4 |
| 20260505102003 | 11 | 137 | 14.5 | 22.5 | 0.00 | 0.00 | 0.00 | 90 | 1012.5 |
| 20260505101516 | 11 | 335 | 12.9 | 20.9 | 0.00 | 0.00 | 0.00 | 91 | 1012.4 |
| 20260505101006 | 11 | 150 | 12.9 | 25.7 | 0.00 | 0.00 | 0.00 | 91 | 1012.5 |
| 20260505100506 | 11 | 335 | 17.7 | 25.7 | 0.00 | 0.00 | 0.00 | 90 | 1012.4 |
| 20260505100006 | 11 | 152 | 16.1 | 20.9 | 0.00 | 0.00 | 0.00 | 90 | 1012.3 |
| 20260505095502 | 11 | 152 | 12.9 | 20.9 | 0.00 | 0.00 | 0.00 | 90 | 1012.2 |
| 20260505095002 | 11 | 148 | 12.9 | 19.3 | 0.00 | 0.00 | 0.00 | 90 | 1012.2 |
| 20260505094509 | 11 | 156 | 11.3 | 16.1 | 0.00 | 0.00 | 0.00 | 90 | 1012.2 |
| 20260505094005 | 11 | 157 | 12.9 | 16.1 | 0.00 | 0.00 | 0.00 | 90 | 1012.3 |
| 20260505093503 | 11 | 166 | 9.7 | 12.9 | 0.00 | 0.00 | 0.00 | 90 | 1012.3 |
| 20260505093018 | 11 | 179 | 8.0 | 12.9 | 0.00 | 0.00 | 0.00 | 90 | 1012.2 |